AVA5325 SKPS-SKCG

Flight info

Callsign AVA5325
Flight time 1h 19m
Altitude 37000
Route MER7 MER DCT UIB DCT IRAXU IRAXU2B
Aircraft A320/M-SDE3FGHIRWY/LB1

Departure

Time 2026-04-29 18:47
Airport Antonio Nariño Airport (SKPS)

Arrival

Time 2026-04-29 20:07
Airport Rafael Nuñez International Airport (SKCG)
Time Latitude Longitude Altitude Speed Heading
2026-04-29 18:22 1.39542 -77.28992 5908 ft 0 kts 105°
2026-04-29 18:36 1.39542 -77.28993 5935 ft 2 kts 105°
2026-04-29 18:36 1.39549 -77.29017 5908 ft 4 kts 107°
2026-04-29 18:36 1.39557 -77.29043 5908 ft 4 kts 109°
2026-04-29 18:37 1.39560 -77.29050 5908 ft 0 kts 109°
2026-04-29 18:42 1.39535 -77.29039 5909 ft 6 kts 187°
2026-04-29 18:42 1.39513 -77.29064 5909 ft 6 kts 265°
2026-04-29 18:42 1.39519 -77.29094 5912 ft 5 kts 281°
2026-04-29 18:43 1.39502 -77.29136 5915 ft 7 kts 205°
2026-04-29 18:43 1.39422 -77.29157 5919 ft 17 kts 194°
2026-04-29 18:43 1.39329 -77.29183 5925 ft 11 kts 195°
2026-04-29 18:43 1.39251 -77.29203 5926 ft 13 kts 195°
2026-04-29 18:44 1.39183 -77.29222 5930 ft 8 kts 195°
2026-04-29 18:44 1.39146 -77.29232 5931 ft 3 kts 195°
2026-04-29 18:44 1.39139 -77.29234 5932 ft 0 kts 195°
2026-04-29 18:44 1.39133 -77.29236 5932 ft 5 kts 195°
2026-04-29 18:45 1.39036 -77.29262 5936 ft 16 kts 195°
2026-04-29 18:45 1.38942 -77.29287 5941 ft 11 kts 195°
2026-04-29 18:45 1.38888 -77.29302 5936 ft 5 kts 195°
2026-04-29 18:45 1.38839 -77.29313 5947 ft 15 kts 193°
2026-04-29 18:46 1.38710 -77.29343 5951 ft 10 kts 181°
2026-04-29 18:46 1.38678 -77.29351 5963 ft 3 kts 269°
2026-04-29 18:46 1.38720 -77.29342 5950 ft 8 kts 21°
2026-04-29 18:46 1.38814 -77.29319 5942 ft 20 kts 14°
2026-04-29 18:47 1.39185 -77.29222 5931 ft 97 kts 15°
2026-04-29 18:47 1.40049 -77.28992 5930 ft 162 kts 15°
2026-04-29 18:47 1.41239 -77.28700 6635 ft 174 kts
2026-04-29 18:47 1.42451 -77.28572 7491 ft 175 kts
2026-04-29 18:48 1.43710 -77.28498 7726 ft 191 kts
2026-04-29 18:48 1.45107 -77.28424 7853 ft 211 kts
2026-04-29 18:48 1.46646 -77.28335 7963 ft 232 kts
2026-04-29 18:48 1.48330 -77.28229 8076 ft 255 kts
2026-04-29 18:49 1.49547 -77.28147 8200 ft 272 kts
2026-04-29 18:49 1.51509 -77.28006 8588 ft 292 kts
2026-04-29 18:49 1.54247 -77.27806 9375 ft 301 kts
2026-04-29 18:49 1.56356 -77.27651 10026 ft 310 kts
2026-04-29 18:50 1.57769 -77.27490 10172 ft 323 kts 15°
2026-04-29 18:50 1.60542 -77.26316 10569 ft 340 kts 32°
2026-04-29 18:50 1.61879 -77.25557 10939 ft 344 kts 34°
2026-04-29 18:50 1.63928 -77.24297 11593 ft 347 kts 34°
2026-04-29 18:51 1.65977 -77.22993 12248 ft 350 kts 36°
2026-04-29 18:51 1.68046 -77.21679 13005 ft 352 kts 34°
2026-04-29 18:51 1.70130 -77.20381 13712 ft 354 kts 34°
2026-04-29 18:51 1.72228 -77.19102 14301 ft 356 kts 34°
2026-04-29 18:52 1.74367 -77.17818 14880 ft 359 kts 33°
2026-04-29 18:52 1.76528 -77.16530 15434 ft 363 kts 33°
2026-04-29 18:52 1.78817 -77.15430 15962 ft 369 kts 21°
2026-04-29 18:52 1.81340 -77.14810 16513 ft 376 kts 10°
2026-04-29 18:53 1.83916 -77.14483 17053 ft 379 kts
2026-04-29 18:53 1.86578 -77.14141 17605 ft 383 kts
2026-04-29 18:53 1.89196 -77.13802 18163 ft 385 kts
2026-04-29 18:53 1.91857 -77.13455 18644 ft 388 kts
2026-04-29 18:54 1.94543 -77.13102 19091 ft 391 kts
2026-04-29 18:54 1.97246 -77.12748 19540 ft 393 kts
2026-04-29 18:54 1.99972 -77.12395 19987 ft 396 kts
2026-04-29 18:54 2.02753 -77.12034 20428 ft 399 kts
2026-04-29 18:55 2.05515 -77.11671 20850 ft 401 kts
2026-04-29 18:55 2.08248 -77.11314 21258 ft 404 kts
2026-04-29 18:55 2.11047 -77.10948 21701 ft 407 kts
2026-04-29 18:55 2.13868 -77.10580 22116 ft 409 kts
2026-04-29 18:56 2.16704 -77.10210 22522 ft 412 kts
2026-04-29 18:56 2.19556 -77.09840 22929 ft 415 kts
2026-04-29 18:56 2.22426 -77.09468 23329 ft 417 kts
2026-04-29 18:56 2.25312 -77.09094 23712 ft 419 kts
2026-04-29 18:57 2.28216 -77.08717 24041 ft 421 kts 10°
2026-04-29 18:57 2.31134 -77.08339 24374 ft 423 kts
2026-04-29 18:57 2.34052 -77.07960 24686 ft 425 kts
2026-04-29 18:57 2.37004 -77.07572 24993 ft 427 kts
2026-04-29 18:58 2.39954 -77.07183 25297 ft 429 kts
2026-04-29 18:58 2.42894 -77.06797 25614 ft 431 kts
2026-04-29 18:58 2.45866 -77.06409 25921 ft 433 kts
2026-04-29 18:58 2.48862 -77.06021 26233 ft 434 kts
2026-04-29 18:59 2.51898 -77.05629 26518 ft 436 kts
2026-04-29 18:59 2.54923 -77.05238 26816 ft 438 kts
2026-04-29 18:59 2.57918 -77.04850 27096 ft 440 kts
2026-04-29 18:59 2.60974 -77.04452 27383 ft 443 kts
2026-04-29 19:00 2.64021 -77.04053 27642 ft 445 kts
2026-04-29 19:00 2.67108 -77.03648 27933 ft 448 kts
2026-04-29 19:00 2.70210 -77.03242 28215 ft 450 kts
2026-04-29 19:00 2.73327 -77.02835 28511 ft 452 kts
2026-04-29 19:01 2.76460 -77.02428 28810 ft 454 kts
2026-04-29 19:01 2.79597 -77.02021 29093 ft 456 kts
2026-04-29 19:01 2.82759 -77.01611 29397 ft 458 kts
2026-04-29 19:01 2.85914 -77.01198 29649 ft 460 kts
2026-04-29 19:02 2.89103 -77.00780 29918 ft 462 kts
2026-04-29 19:02 2.91222 -77.00503 30079 ft 463 kts
2026-04-29 19:02 2.95510 -76.99945 30375 ft 466 kts
2026-04-29 19:02 2.98734 -76.99525 30596 ft 468 kts
2026-04-29 19:03 3.01979 -76.99101 30768 ft 471 kts
2026-04-29 19:03 3.05233 -76.98675 30964 ft 473 kts
2026-04-29 19:03 3.08500 -76.98249 31170 ft 474 kts
2026-04-29 19:03 3.11769 -76.97822 31362 ft 476 kts
2026-04-29 19:04 3.15056 -76.97394 31651 ft 475 kts
2026-04-29 19:04 3.18338 -76.96966 31961 ft 474 kts
2026-04-29 19:04 3.21614 -76.96541 32276 ft 473 kts
2026-04-29 19:04 3.24877 -76.96116 32582 ft 473 kts
2026-04-29 19:05 3.28092 -76.95696 32871 ft 472 kts
2026-04-29 19:05 3.31344 -76.95271 33177 ft 471 kts
2026-04-29 19:05 3.34637 -76.94840 33488 ft 471 kts
2026-04-29 19:05 3.37885 -76.94416 33796 ft 470 kts
2026-04-29 19:06 3.41083 -76.93998 34086 ft 469 kts
2026-04-29 19:06 3.44322 -76.93575 34361 ft 469 kts
2026-04-29 19:06 3.50790 -76.92738 34848 ft 469 kts
2026-04-29 19:07 3.54030 -76.92317 34937 ft 469 kts
2026-04-29 19:07 3.60488 -76.91473 34912 ft 468 kts
2026-04-29 19:08 3.66950 -76.90624 34869 ft 468 kts
2026-04-29 19:08 3.73424 -76.89777 34832 ft 468 kts
2026-04-29 19:09 3.79877 -76.88935 34817 ft 467 kts
2026-04-29 19:09 3.86322 -76.88098 34827 ft 467 kts
2026-04-29 19:10 3.92780 -76.87251 34969 ft 468 kts
2026-04-29 19:10 3.99231 -76.86408 34972 ft 466 kts
2026-04-29 19:11 4.05637 -76.85575 34951 ft 462 kts
2026-04-29 19:11 4.12004 -76.84751 34951 ft 461 kts
2026-04-29 19:12 4.18257 -76.83932 34937 ft 460 kts
2026-04-29 19:12 4.24398 -76.83121 34936 ft 460 kts
2026-04-29 19:13 4.30769 -76.82282 34923 ft 460 kts
2026-04-29 19:13 4.37109 -76.81458 34924 ft 460 kts
2026-04-29 19:14 4.43472 -76.80628 34921 ft 460 kts
2026-04-29 19:14 4.49844 -76.79792 34915 ft 464 kts
2026-04-29 19:15 4.56243 -76.78952 34942 ft 465 kts
2026-04-29 19:15 4.62670 -76.78111 34928 ft 466 kts
2026-04-29 19:16 4.69065 -76.77272 34928 ft 466 kts
2026-04-29 19:16 4.75499 -76.76429 34923 ft 466 kts
2026-04-29 19:17 4.81921 -76.75583 34922 ft 466 kts
2026-04-29 19:17 4.88370 -76.74739 34920 ft 467 kts
2026-04-29 19:18 4.94827 -76.73897 34915 ft 468 kts
2026-04-29 19:18 5.01275 -76.73056 34915 ft 468 kts
2026-04-29 19:19 5.07734 -76.72214 34904 ft 468 kts
2026-04-29 19:19 5.14188 -76.71365 34904 ft 468 kts
2026-04-29 19:20 5.20651 -76.70512 34896 ft 468 kts
2026-04-29 19:20 5.27119 -76.69662 34895 ft 469 kts
2026-04-29 19:21 5.33592 -76.68819 34894 ft 469 kts
2026-04-29 19:21 5.40076 -76.67969 34890 ft 469 kts
2026-04-29 19:22 5.46550 -76.67116 34883 ft 469 kts
2026-04-29 19:22 5.53029 -76.66262 34879 ft 469 kts
2026-04-29 19:23 5.59518 -76.65405 34877 ft 472 kts
2026-04-29 19:23 5.66029 -76.64551 34809 ft 474 kts
2026-04-29 19:24 5.72508 -76.63317 34810 ft 475 kts 14°
2026-04-29 19:24 5.78919 -76.61682 34814 ft 475 kts 14°
2026-04-29 19:25 5.85331 -76.60040 34833 ft 475 kts 14°
2026-04-29 19:25 5.91753 -76.58402 34851 ft 475 kts 14°
2026-04-29 19:26 5.98156 -76.56781 34869 ft 476 kts 14°
2026-04-29 19:26 6.04551 -76.55159 34885 ft 476 kts 14°
2026-04-29 19:27 6.10957 -76.53523 34884 ft 476 kts 14°
2026-04-29 19:27 6.17389 -76.51882 34884 ft 476 kts 14°
2026-04-29 19:28 6.23799 -76.50253 34914 ft 476 kts 13°
2026-04-29 19:28 6.30229 -76.48617 34920 ft 476 kts 14°
2026-04-29 19:29 6.36638 -76.46984 34914 ft 475 kts 14°
2026-04-29 19:29 6.43037 -76.45357 34914 ft 475 kts 14°
2026-04-29 19:30 6.49451 -76.43720 34915 ft 475 kts 14°
2026-04-29 19:30 6.55858 -76.42082 34912 ft 475 kts 14°
2026-04-29 19:31 6.62269 -76.40446 34912 ft 475 kts 14°
2026-04-29 19:31 6.68694 -76.38813 34908 ft 479 kts 13°
2026-04-29 19:32 6.75171 -76.37156 34901 ft 481 kts 13°
2026-04-29 19:32 6.81664 -76.35497 34926 ft 482 kts 13°
2026-04-29 19:33 6.88160 -76.33843 34926 ft 482 kts 13°
2026-04-29 19:33 6.93569 -76.32463 34926 ft 482 kts 13°
2026-04-29 19:34 7.00065 -76.30797 34921 ft 482 kts 13°
2026-04-29 19:34 7.06558 -76.29133 34920 ft 482 kts 13°
2026-04-29 19:35 7.13055 -76.27473 34913 ft 482 kts 13°
2026-04-29 19:35 7.19552 -76.25814 34911 ft 481 kts 13°
2026-04-29 19:36 7.26046 -76.24157 34911 ft 482 kts 13°
2026-04-29 19:36 7.32541 -76.22497 34910 ft 481 kts 13°
2026-04-29 19:37 7.38996 -76.20842 34917 ft 483 kts 13°
2026-04-29 19:37 7.45527 -76.19167 34918 ft 485 kts 13°
2026-04-29 19:38 7.52070 -76.17495 34915 ft 485 kts 13°
2026-04-29 19:38 7.58609 -76.15826 34890 ft 485 kts 13°
2026-04-29 19:39 7.65163 -76.14149 34894 ft 485 kts 13°
2026-04-29 19:39 7.71675 -76.12475 34864 ft 482 kts 13°
2026-04-29 19:40 7.78174 -76.10804 34860 ft 482 kts 13°
2026-04-29 19:40 7.84652 -76.09145 34853 ft 483 kts 13°
2026-04-29 19:41 7.91176 -76.07471 34851 ft 483 kts 13°
2026-04-29 19:41 7.97685 -76.05802 34835 ft 483 kts 13°
2026-04-29 19:42 8.04202 -76.04134 34835 ft 483 kts 13°
2026-04-29 19:42 8.10732 -76.02459 34830 ft 483 kts 13°
2026-04-29 19:43 8.17225 -76.00792 34831 ft 481 kts 13°
2026-04-29 19:43 8.23715 -75.99121 34829 ft 481 kts 13°
2026-04-29 19:44 8.30208 -75.97447 34823 ft 481 kts 13°
2026-04-29 19:44 8.36706 -75.95770 34819 ft 481 kts 13°
2026-04-29 19:45 8.43189 -75.94103 34816 ft 481 kts 13°
2026-04-29 19:45 8.49670 -75.92440 34809 ft 479 kts 14°
2026-04-29 19:46 8.56081 -75.90791 34590 ft 478 kts 14°
2026-04-29 19:46 8.59328 -75.89956 33759 ft 483 kts 14°
2026-04-29 19:46 8.62569 -75.89119 33139 ft 479 kts 14°
2026-04-29 19:46 8.65799 -75.88281 32533 ft 476 kts 14°
2026-04-29 19:47 8.68986 -75.87458 31934 ft 472 kts 14°
2026-04-29 19:47 8.72162 -75.86641 31345 ft 469 kts 14°
2026-04-29 19:47 8.75317 -75.85829 30761 ft 466 kts 14°
2026-04-29 19:47 8.78446 -75.85024 30188 ft 464 kts 14°
2026-04-29 19:48 8.81559 -75.84226 29566 ft 461 kts 14°
2026-04-29 19:48 8.83623 -75.83695 29176 ft 458 kts 13°
2026-04-29 19:48 8.87737 -75.82638 28443 ft 451 kts 13°
2026-04-29 19:48 8.90752 -75.81861 27914 ft 446 kts 13°
2026-04-29 19:49 8.93755 -75.81087 27388 ft 441 kts 13°
2026-04-29 19:49 8.96713 -75.80324 26881 ft 436 kts 13°
2026-04-29 19:49 8.99640 -75.79567 26387 ft 431 kts 13°
2026-04-29 19:49 9.02526 -75.78819 25904 ft 427 kts 13°
2026-04-29 19:50 9.05389 -75.78081 25402 ft 422 kts 14°
2026-04-29 19:50 9.08233 -75.77346 24917 ft 419 kts 14°
2026-04-29 19:50 9.11045 -75.76620 24397 ft 416 kts 14°
2026-04-29 19:50 9.13841 -75.75899 23903 ft 413 kts 14°
2026-04-29 19:51 9.16615 -75.75185 23385 ft 411 kts 14°
2026-04-29 19:51 9.19377 -75.74472 22799 ft 408 kts 13°
2026-04-29 19:51 9.22124 -75.73762 22282 ft 404 kts 14°
2026-04-29 19:51 9.24834 -75.73058 21767 ft 401 kts 14°
2026-04-29 19:52 9.27491 -75.72367 21265 ft 399 kts 14°
2026-04-29 19:52 9.30208 -75.71662 20757 ft 396 kts 14°
2026-04-29 19:52 9.32867 -75.70978 20256 ft 394 kts 14°
2026-04-29 19:52 9.35495 -75.70300 19760 ft 393 kts 14°
2026-04-29 19:53 9.38131 -75.69621 19289 ft 391 kts 14°
2026-04-29 19:53 9.40756 -75.68941 18808 ft 389 kts 15°
2026-04-29 19:53 9.43351 -75.68267 18356 ft 381 kts 15°
2026-04-29 19:53 9.45885 -75.67608 17779 ft 370 kts 15°
2026-04-29 19:54 9.50697 -75.66370 16882 ft 344 kts 14°
2026-04-29 19:54 9.52999 -75.65859 16474 ft 333 kts 12°
2026-04-29 19:54 9.55251 -75.65426 16035 ft 325 kts 11°
2026-04-29 19:55 9.57465 -75.65030 15809 ft 324 kts 11°
2026-04-29 19:55 9.59685 -75.64640 15431 ft 323 kts 11°
2026-04-29 19:55 9.61886 -75.64247 15056 ft 321 kts 11°
2026-04-29 19:55 9.64098 -75.63843 14668 ft 324 kts 11°
2026-04-29 19:56 9.66322 -75.63427 14276 ft 325 kts 12°
2026-04-29 19:56 9.68549 -75.63005 13887 ft 328 kts 12°
2026-04-29 19:56 9.70795 -75.62577 13467 ft 330 kts 12°
2026-04-29 19:56 9.73057 -75.62143 13042 ft 330 kts 12°
2026-04-29 19:57 9.75317 -75.61710 12624 ft 331 kts 12°
2026-04-29 19:57 9.76819 -75.61424 12353 ft 331 kts 12°
2026-04-29 19:57 9.79840 -75.60851 11791 ft 331 kts 12°
2026-04-29 19:57 9.82111 -75.60421 11368 ft 331 kts 12°
2026-04-29 19:58 9.84373 -75.59993 10945 ft 331 kts 12°
2026-04-29 19:58 9.86646 -75.59561 10501 ft 332 kts 12°
2026-04-29 19:58 9.88910 -75.59131 10073 ft 332 kts 12°
2026-04-29 19:58 9.91154 -75.58706 9927 ft 321 kts 12°
2026-04-29 19:59 9.93309 -75.58297 9801 ft 311 kts 12°
2026-04-29 19:59 9.95425 -75.57892 9483 ft 307 kts 13°
2026-04-29 19:59 9.97517 -75.57491 9125 ft 305 kts 13°
2026-04-29 19:59 9.99593 -75.57095 8764 ft 303 kts 13°
2026-04-29 20:00 10.01657 -75.56701 8398 ft 301 kts 13°
2026-04-29 20:00 10.03711 -75.56308 8019 ft 299 kts 13°
2026-04-29 20:00 10.05744 -75.55921 7652 ft 297 kts 13°
2026-04-29 20:00 10.07760 -75.55537 7273 ft 295 kts 13°
2026-04-29 20:01 10.09776 -75.55156 6900 ft 292 kts 13°
2026-04-29 20:01 10.11769 -75.54779 6532 ft 291 kts 13°
2026-04-29 20:01 10.13750 -75.54404 6188 ft 288 kts 13°
2026-04-29 20:01 10.15726 -75.54028 5585 ft 294 kts 13°
2026-04-29 20:02 10.17781 -75.53637 4825 ft 305 kts 12°
2026-04-29 20:02 10.19883 -75.53235 4129 ft 304 kts 12°
2026-04-29 20:02 10.21853 -75.52861 3953 ft 278 kts 12°
2026-04-29 20:02 10.23079 -75.52630 3927 ft 260 kts 12°
2026-04-29 20:03 10.25372 -75.52194 3457 ft 247 kts 12°
2026-04-29 20:03 10.27039 -75.52000 3123 ft 238 kts
2026-04-29 20:03 10.28689 -75.51921 2758 ft 234 kts
2026-04-29 20:03 10.30270 -75.51862 2469 ft 219 kts
2026-04-29 20:04 10.31748 -75.51803 2183 ft 206 kts
2026-04-29 20:04 10.33134 -75.51746 1926 ft 192 kts
2026-04-29 20:04 10.34410 -75.51694 1688 ft 177 kts
2026-04-29 20:04 10.35572 -75.51646 1475 ft 158 kts
2026-04-29 20:05 10.36619 -75.51603 1265 ft 145 kts
2026-04-29 20:05 10.37604 -75.51563 1079 ft 140 kts
2026-04-29 20:05 10.38570 -75.51523 918 ft 138 kts
2026-04-29 20:05 10.39523 -75.51484 745 ft 136 kts
2026-04-29 20:06 10.40462 -75.51445 554 ft 137 kts
2026-04-29 20:06 10.41429 -75.51406 376 ft 140 kts
2026-04-29 20:06 10.42401 -75.51370 217 ft 139 kts
2026-04-29 20:06 10.43372 -75.51330 55 ft 134 kts
2026-04-29 20:07 10.44152 -75.51291 49 ft 75 kts
2026-04-29 20:07 10.44405 -75.51281 48 ft 17 kts
2026-04-29 20:07 10.44521 -75.51287 51 ft 17 kts 336°
2026-04-29 20:07 10.44553 -75.51381 51 ft 2 kts 274°
2026-04-29 20:08 10.44553 -75.51383 51 ft 3 kts 274°
2026-04-29 20:08 10.44556 -75.51421 51 ft 4 kts 273°
2026-04-29 20:08 10.44557 -75.51439 51 ft 1 kts 273°
2026-04-29 20:09 10.44504 -75.51558 51 ft 0 kts 272°